Voltar ao catálogo

COSMOS 2489

AtivoMilitarPO
NORAD 39484·PAYLOAD·🇷🇺 Russia

Lançado Dec 25, 2013 de Plesetsk Cosmodrome

Loading…

Próximas Passagens (próximas 24 horas)

TLE

AtualizadoSource: Space-Track

Época: Sep 14, 2026, 14:33 UTC

1 39484U 13076B   26257.60659082  .00000092  00000-0  59599-3 0  9994
2 39484  82.4847 114.3949 0020326 262.0839  97.7933 12.42882606577058

Acompanhe COSMOS 2489 em tempo real com AllMySat

Download on the App Store